TimeMST,TemperatureF,Dew PointF,Humidity,Sea Level PressureIn,VisibilityMPH,Wind Direction,Wind SpeedMPH,Gust SpeedMPH,PrecipitationIn,Events,Conditions,WindDirDegrees,DateUTC
12:51 AM,33.1,32.0,96,30.15,1.5,Calm,Calm,-,0.00,,Overcast,0,2013-01-26 07:51:00
1:42 AM,32.0,30.2,93,30.08,0.8,SSW,3.5,-,N/A,,Overcast,210,2013-01-26 08:42:00
1:51 AM,32.0,30.9,96,30.14,0.8,WSW,4.6,-,N/A,,Overcast,250,2013-01-26 08:51:00
1:56 AM,32.0,30.2,93,30.09,1.0,SW,3.5,-,N/A,,Overcast,230,2013-01-26 08:56:00
2:51 AM,33.1,32.0,96,30.12,1.5,Calm,Calm,-,N/A,,Overcast,0,2013-01-26 09:51:00
3:32 AM,33.8,32.0,93,30.08,1.5,Calm,Calm,-,N/A,,Overcast,0,2013-01-26 10:32:00
3:51 AM,32.0,32.0,100,30.11,1.5,Calm,Calm,-,N/A,,Overcast,0,2013-01-26 10:51:00
4:49 AM,33.8,32.0,93,30.04,2.0,SSE,5.8,-,N/A,,Overcast,160,2013-01-26 11:49:00
4:51 AM,33.1,32.0,96,30.07,2.0,SSE,4.6,-,N/A,,Overcast,150,2013-01-26 11:51:00
5:14 AM,33.8,32.0,93,30.03,1.8,Calm,Calm,-,N/A,,Overcast,0,2013-01-26 12:14:00
5:35 AM,33.8,30.2,87,30.02,2.0,Calm,Calm,-,N/A,,Overcast,0,2013-01-26 12:35:00
5:45 AM,33.8,32.0,93,30.01,1.8,Calm,Calm,-,N/A,,Overcast,0,2013-01-26 12:45:00
5:51 AM,33.1,32.0,96,30.05,1.8,Calm,Calm,-,N/A,,Overcast,0,2013-01-26 12:51:00
6:32 AM,32.0,32.0,100,30.01,1.0,SW,5.8,-,N/A,,Overcast,230,2013-01-26 13:32:00
6:51 AM,32.0,30.9,96,30.06,1.0,Calm,Calm,-,N/A,,Overcast,0,2013-01-26 13:51:00
7:31 AM,32.0,30.2,93,30.00,1.0,East,3.5,-,N/A,,Overcast,80,2013-01-26 14:31:00
7:51 AM,32.0,30.9,96,30.04,0.8,Calm,Calm,-,N/A,,Mostly Cloudy,0,2013-01-26 14:51:00
8:38 AM,33.8,32.0,93,30.01,1.0,East,3.5,-,N/A,,Overcast,90,2013-01-26 15:38:00
8:51 AM,33.1,32.0,96,30.04,1.2,Calm,Calm,-,N/A,,Overcast,0,2013-01-26 15:51:00
9:37 AM,33.8,32.0,93,30.00,0.8,Calm,Calm,-,N/A,,Overcast,0,2013-01-26 16:37:00
9:51 AM,33.1,32.0,96,30.04,0.8,Calm,Calm,-,N/A,,Overcast,0,2013-01-26 16:51:00
10:42 AM,33.8,32.0,93,29.99,1.0,SSW,3.5,-,0.00,,Overcast,200,2013-01-26 17:42:00
10:51 AM,34.0,33.1,96,30.03,1.0,Calm,Calm,-,0.00,,Overcast,0,2013-01-26 17:51:00
11:25 AM,33.8,33.8,100,29.97,0.8,Calm,Calm,-,N/A,,Mostly Cloudy,0,2013-01-26 18:25:00
11:30 AM,33.8,33.8,100,29.97,1.0,Calm,Calm,-,N/A,,Mostly Cloudy,0,2013-01-26 18:30:00
11:43 AM,33.8,32.0,93,29.96,0.8,NNW,3.5,-,N/A,,Mostly Cloudy,340,2013-01-26 18:43:00
11:51 AM,34.0,32.0,92,29.99,0.8,NNW,8.1,-,N/A,,Mostly Cloudy,340,2013-01-26 18:51:00
11:56 AM,33.8,32.0,93,29.95,0.8,North,5.8,-,N/A,,Mostly Cloudy,350,2013-01-26 18:56:00
12:17 PM,35.6,32.0,87,29.94,0.8,North,5.8,-,N/A,,Mist,10,2013-01-26 19:17:00
12:22 PM,35.6,33.8,93,29.94,1.0,North,3.5,-,N/A,,Mist,10,2013-01-26 19:22:00
12:38 PM,35.6,33.8,93,29.92,1.2,ENE,5.8,-,N/A,,Scattered Clouds,60,2013-01-26 19:38:00
12:51 PM,37.0,33.1,86,29.94,1.5,Calm,Calm,-,N/A,,Partly Cloudy,0,2013-01-26 19:51:00
1:23 PM,33.8,32.0,93,29.90,0.5,WNW,6.9,-,N/A,Fog,Fog,300,2013-01-26 20:23:00
1:51 PM,32.0,32.0,100,29.93,0.2,Calm,Calm,-,N/A,Fog,Fog,0,2013-01-26 20:51:00
2:51 PM,32.0,32.0,100,29.92,0.2,Calm,Calm,-,N/A,Fog,Fog,0,2013-01-26 21:51:00
3:51 PM,32.0,32.0,100,29.91,0.2,South,3.5,-,N/A,Fog,Fog,180,2013-01-26 22:51:00
4:31 PM,33.8,32.0,93,29.85,0.2,SE,3.5,-,N/A,Fog,Fog,130,2013-01-26 23:31:00
4:36 PM,33.8,32.0,93,29.85,0.2,Calm,Calm,-,N/A,Fog,Fog,0,2013-01-26 23:36:00
4:51 PM,33.1,32.0,96,29.88,0.8,Calm,Calm,-,N/A,,Mostly Cloudy,0,2013-01-26 23:51:00
4:56 PM,33.8,32.0,93,29.84,1.0,SSE,3.5,-,N/A,,Mostly Cloudy,150,2013-01-26 23:56:00
5:06 PM,33.8,32.0,93,29.84,1.2,Calm,Calm,-,N/A,,Mostly Cloudy,0,2013-01-27 00:06:00
5:20 PM,33.8,32.0,93,29.84,0.5,Calm,Calm,-,N/A,Fog,Fog,0,2013-01-27 00:20:00
5:51 PM,32.0,32.0,100,29.88,0.2,ESE,3.5,-,N/A,Fog,Fog,110,2013-01-27 00:51:00
6:15 PM,33.8,33.8,100,29.84,1.2,Calm,Calm,-,N/A,,Overcast,0,2013-01-27 01:15:00
6:51 PM,32.0,32.0,100,29.89,1.2,Calm,Calm,-,N/A,,Overcast,0,2013-01-27 01:51:00
7:10 PM,33.8,32.0,93,29.85,2.0,Calm,Calm,-,N/A,,Overcast,0,2013-01-27 02:10:00
7:16 PM,33.8,33.8,100,29.85,2.0,Calm,Calm,-,N/A,,Overcast,0,2013-01-27 02:16:00
7:51 PM,32.0,32.0,100,29.88,1.8,Calm,Calm,-,N/A,,Overcast,0,2013-01-27 02:51:00
8:05 PM,32.0,32.0,100,29.84,1.5,Calm,Calm,-,N/A,,Overcast,0,2013-01-27 03:05:00
8:51 PM,33.1,32.0,96,29.87,1.8,Calm,Calm,-,N/A,,Overcast,0,2013-01-27 03:51:00
9:09 PM,33.8,32.0,93,29.83,1.5,Calm,Calm,-,N/A,,Overcast,0,2013-01-27 04:09:00
9:36 PM,33.8,32.0,93,29.83,1.5,Calm,Calm,-,0.00,,Overcast,0,2013-01-27 04:36:00
9:48 PM,32.0,32.0,100,29.83,2.0,Calm,Calm,-,0.00,,Overcast,0,2013-01-27 04:48:00
9:51 PM,32.0,30.9,96,29.86,2.0,Calm,Calm,-,0.00,,Overcast,0,2013-01-27 04:51:00
10:07 PM,33.8,32.0,93,29.83,2.5,Calm,Calm,-,N/A,,Overcast,0,2013-01-27 05:07:00
10:17 PM,33.8,30.2,87,29.84,1.2,Calm,Calm,-,N/A,,Overcast,0,2013-01-27 05:17:00
10:51 PM,33.1,32.0,96,29.86,1.0,Calm,Calm,-,N/A,,Overcast,0,2013-01-27 05:51:00
11:51 PM,33.1,32.0,96,29.87,1.5,Calm,Calm,-,N/A,,Overcast,0,2013-01-27 06:51:00
11:56 PM,33.8,32.0,93,29.84,1.8,Calm,Calm,-,N/A,,Overcast,0,2013-01-27 06:56:00